Temp
84 91 94 95 81 67 59 69 90 87 83 95 99 94 88 92 87 76 100 101 94 90 85 83 80 81 82 81 80 80 80 80 80 80 80 80 80 80 80 80 81 81 82 82 82 82 82 81 81
96 100 101 93 76 68 68 76 76 92 95 99 99 95 89 87 98 96 97 101 94 90 86 83 79 80 81 81 80 80 80 80 80 80 80 80 80 80 80 80 81 81 82 82 82 82 81 81 81
91 99 90 86 78 70 75 87 92 95 98 97 86 94 76 84 98 98 100 102 95 91 90 83 80 80 80 80 80 80 80 80 80 80 80 80 80 80 80 80 80 81 82 82 82 81 81 81 81
98 99 96 81 78 80 84 92 96 96 97 98 95 80 73 83 99 102 103 103 97 95 93 80 79 79 80 80 79 79 80 80 80 80 80 80 80 80 79 80 80 81 82 82 81 81 81 81 81
101 95 83 81 83 83 95 97 98 95 95 91 92 72 67 97 102 101 101 103 99 97 90 83 79 79 80 80 79 79 79 79 80 80 80 80 80 79 79 80 80 81 81 81 81 81 80 80 80
91 93 78 77 78 89 95 98 98 96 94 93 87 76 70 87 98 99 103 103 103 97 89 84 80 79 79 80 79 79 79 79 79 79 79 80 79 79 79 79 80 80 80 81 81 80 80 80 79
88 86 80 83 80 84 93 99 96 95 96 92 95 78 76 87 100 102 103 104 103 96 93 85 84 81 79 79 79 79 79 79 79 79 79 79 79 79 79 79 79 80 80 80 80 80 79 79 79
95 90 82 85 84 86 95 97 101 97 95 106 104 83 81 91 102 103 103 103 103 100 94 89 87 86 83 82 79 79 79 79 79 79 79 79 79 79 79 78 79 79 79 79 79 79 79 78 78
100 83 79 84 86 90 98 94 101 104 100 102 104 100 100 102 104 103 100 101 101 101 95 93 91 89 88 88 82 79 79 79 79 79 79 78 81 81 81 80 80 79 79 79 79 78 78 78 78
90 83 85 94 95 92 96 95 96 96 96 98 99 102 102 103 102 100 99 98 98 98 99 96 95 92 92 94 85 81 83 81 80 81 80 79 81 82 85 84 80 79 79 79 79 78 78 78 79
92 83 92 94 95 96 94 94 99 95 91 97 96 98 101 101 100 101 101 101 100 100 100 100 95 91 95 95 86 85 86 84 82 81 81 81 85 84 87 86 83 79 79 80 79 78 78 79 80
86 93 93 94 96 95 92 97 94 95 96 102 103 105 104 100 100 101 94 102 101 100 100 101 99 93 94 96 88 88 88 86 85 85 83 82 82 83 84 87 84 81 83 79 81 81 80 79 81
89 92 94 96 95 95 96 93 93 95 102 105 105 104 103 103 102 104 105 105 103 100 99 101 98 92 91 91 92 92 90 90 89 86 85 86 83 82 83 84 85 85 85 83 83 84 82 79 76
93 93 93 95 95 96 92 93 95 97 103 102 102 102 103 104 103 103 102 102 99 97 97 101 99 90 94 88 89 89 89 90 89 88 88 85 84 82 83 83 83 83 84 84 80 76 74 70 72
94 86 91 94 94 93 95 88 90 99 101 99 100 102 102 103 105 100 102 99 99 98 94 94 94 92 88 88 88 87 88 92 88 88 89 86 84 83 82 83 82 82 84 85 77 73 70 70 69
87 88 81 91 93 94 92 81 94 99 98 96 99 100 101 102 103 104 103 100 99 99 94 93 100 94 88 88 87 88 88 87 88 88 88 88 87 83 82 82 82 82 79 78 74 70 67 67 67
86 79 82 85 94 91 90 85 94 99 97 95 97 98 100 101 101 101 103 103 100 97 94 94 93 97 89 86 88 87 87 87 87 87 88 86 86 83 79 83 82 80 76 70 69 68 67 65 65
77 80 83 81 89 90 86 87 93 96 96 93 93 94 95 96 95 96 92 97 100 98 94 91 92 90 89 87 86 88 88 88 89 88 80 77 74 79 77 79 79 75 69 68 67 67 65 64 64
84 82 80 86 90 85 84 86 89 92 92 90 92 92 93 93 95 94 92 91 92 95 94 89 88 86 88 88 85 85 85 86 87 81 80 73 70 74 70 75 75 73 71 69 68 66 64 63 64
84 81 80 86 89 86 85 76 78 74 81 90 90 90 89 90 89 90 89 88 88 91 93 92 91 88 86 86 86 87 86 87 83 72 71 71 71 71 68 73 74 75 72 70 67 65 62 62 64
83 79 78 79 85 88 84 63 61 73 90 91 92 92 91 90 90 90 89 86 87 86 87 91 92 89 87 87 87 86 85 84 79 68 67 68 71 72 71 72 71 73 73 68 66 66 64 63 62
77 86 84 81 79 72 85 57 61 72 84 86 88 90 90 89 90 91 91 89 86 86 86 84 83 85 89 88 85 81 80 78 76 68 69 68 73 75 76 76 77 75 72 68 67 66 64 62 60
80 86 83 83 78 78 79 68 60 64 79 82 85 87 90 90 89 88 91 91 93 90 86 84 82 81 81 83 82 79 78 77 73 78 79 74 75 78 81 79 77 74 69 67 65 64 63 62 61
89 83 83 82 79 67 74 69 54 56 79 81 85 86 88 90 88 87 89 91 87 85 87 86 83 82 83 84 84 80 79 77 78 77 77 77 75 77 77 76 75 75 69 66 66 65 63 62 62
86 78 67 64 59 59 72 74 71 80 84 83 83 85 87 88 87 85 84 84 83 81 81 77 75 77 77 76 74 74 74 72 75 73 73 73 76 72 69 70 69 68 68 62 61 60 60 60 59
81 78 67 55 59 66 76 65 71 83 86 86 86 86 86 86 87 84 83 83 81 78 77 76 74 71 76 74 74 76 74 72 75 74 74 74 69 67 65 63 63 61 61 61 61 60 61 61 61
79 73 81 69 73 67 64 62 78 83 82 84 84 83 83 84 83 83 83 82 82 81 77 76 73 71 72 73 75 75 75 75 74 73 71 69 65 64 62 62 62 63 63 63 62 61 61 61 62
82 86 70 72 58 56 67 54 62 71 74 79 80 80 81 83 84 83 83 81 82 81 79 79 78 75 73 72 73 75 74 76 72 70 68 65 65 65 64 63 64 64 63 64 64 64 64 64 64
79 76 76 73 70 59 58 63 76 74 75 75 78 80 81 82 83 83 83 82 82 82 82 78 78 76 76 76 76 74 73 74 70 69 69 67 66 66 64 65 65 67 66 65 65 67 68 65 64
82 77 74 63 61 65 63 64 79 77 77 76 77 79 82 82 82 83 82 82 81 79 79 78 75 76 76 76 75 74 73 73 70 72 69 69 68 68 68 68 68 67 68 68 68 67 69 68 66
MSLP
1007.47 1007.26 1007.01 1005.43 1005.03 1006.40 1005.97 1003.88 1000.55 999.57 999.73 998.83 998.81 999.31 1000.56 1000.78 1000.73 1002.09 1002.74 1003.47 1004.65 1006.15 1007.65 1008.53 1009.17 1009.62 1010.10 1010.72 1011.16 1011.63 1012.08 1012.48 1012.86 1013.16 1013.45 1013.75 1013.96 1014.11 1014.33 1014.49 1014.56 1014.71 1014.87 1015.10 1015.31 1015.35 1015.45 1015.45 1015.60
1006.73 1005.86 1005.03 1004.26 1003.99 1004.20 1004.36 1002.07 1000.97 998.82 998.93 998.85 999.06 1000.23 1001.58 1001.09 1001.29 1001.98 1002.56 1003.63 1004.85 1006.31 1007.57 1008.56 1009.46 1009.77 1010.22 1010.80 1011.28 1011.74 1012.19 1012.59 1012.98 1013.36 1013.62 1013.86 1014.15 1014.30 1014.53 1014.67 1014.74 1014.82 1014.99 1015.16 1015.35 1015.54 1015.48 1015.55 1015.73
1007.18 1005.68 1004.71 1002.81 1002.62 1003.38 1001.41 999.88 998.89 998.60 998.71 998.92 1000.72 1001.27 1003.98 1003.81 1002.04 1002.33 1003.12 1003.49 1005.12 1006.61 1007.58 1008.81 1009.59 1010.04 1010.45 1010.91 1011.39 1011.84 1012.30 1012.70 1013.09 1013.49 1013.76 1013.95 1014.24 1014.48 1014.65 1014.75 1014.86 1014.90 1015.07 1015.22 1015.31 1015.52 1015.54 1015.62 1015.73
1005.90 1003.94 1003.31 1002.32 1001.34 1001.02 1000.17 998.99 998.49 998.03 998.57 999.60 1000.25 1004.45 1006.51 1004.04 1002.23 1002.54 1003.23 1003.53 1004.83 1006.23 1007.43 1009.24 1009.77 1010.25 1010.70 1011.16 1011.59 1011.98 1012.39 1012.76 1013.11 1013.49 1013.79 1014.07 1014.36 1014.57 1014.68 1014.83 1014.91 1014.97 1015.09 1015.15 1015.34 1015.49 1015.48 1015.55 1015.62
1004.91 1003.74 1002.07 1001.05 1000.20 1000.10 998.63 998.40 998.38 998.11 998.64 1000.59 1001.45 1005.85 1006.21 1003.86 1003.18 1003.34 1003.39 1003.53 1004.33 1005.74 1007.48 1009.24 1010.01 1010.42 1010.77 1011.27 1011.78 1012.19 1012.56 1012.89 1013.23 1013.56 1013.82 1014.14 1014.35 1014.59 1014.66 1014.77 1014.89 1014.98 1015.07 1015.17 1015.38 1015.45 1015.45 1015.48 1015.43
1003.95 1003.11 1001.95 1000.33 1000.54 998.87 998.28 998.46 998.34 998.41 998.89 999.90 1001.75 1004.61 1005.68 1004.15 1003.96 1003.59 1003.37 1003.46 1004.01 1005.56 1007.61 1009.08 1010.13 1010.58 1010.94 1011.36 1011.76 1012.16 1012.57 1013.01 1013.36 1013.61 1013.82 1014.05 1014.22 1014.42 1014.59 1014.67 1014.77 1014.92 1015.02 1015.07 1015.18 1015.28 1015.31 1015.25 1015.21
1003.63 1002.44 1001.43 1000.18 1000.02 999.22 998.02 998.37 998.31 998.56 998.45 999.16 1000.51 1003.33 1003.85 1003.88 1003.07 1003.17 1003.23 1003.59 1004.10 1005.71 1007.20 1008.87 1009.84 1010.54 1011.02 1011.39 1011.82 1012.20 1012.61 1013.00 1013.30 1013.56 1013.72 1013.91 1014.09 1014.19 1014.37 1014.45 1014.68 1014.76 1014.82 1014.94 1015.05 1015.04 1015.03 1015.05 1015.18
1003.06 1002.48 1001.34 1000.09 998.85 998.11 998.29 998.49 998.13 998.47 998.51 998.31 998.86 1000.60 1002.59 1002.46 1002.42 1002.88 1003.22 1003.59 1003.97 1005.07 1006.71 1008.32 1009.35 1010.24 1010.78 1011.24 1011.76 1012.14 1012.49 1012.77 1013.02 1013.28 1013.50 1013.59 1013.66 1013.84 1014.01 1014.22 1014.39 1014.51 1014.61 1014.64 1014.74 1014.79 1014.77 1014.82 1015.03
1003.03 1002.52 1001.08 999.76 998.67 997.96 998.14 998.37 998.42 998.64 998.41 998.22 998.25 999.26 1000.39 1001.43 1001.73 1002.13 1002.78 1003.12 1003.77 1004.59 1006.05 1007.47 1008.66 1009.50 1010.01 1010.42 1011.30 1011.81 1012.09 1012.42 1012.71 1012.95 1013.09 1013.31 1013.32 1013.33 1013.52 1013.72 1013.78 1014.11 1014.32 1014.48 1014.59 1014.62 1014.52 1014.62 1014.69
1002.57 1001.71 1000.12 999.27 998.81 998.69 998.43 998.83 999.00 998.76 998.56 998.09 998.29 999.21 1000.14 1000.84 1000.96 1001.11 1001.49 1001.89 1003.00 1004.13 1004.96 1006.19 1007.41 1008.39 1009.06 1009.10 1010.16 1011.12 1011.50 1011.85 1012.14 1012.27 1012.53 1012.92 1012.77 1012.54 1012.58 1012.67 1013.15 1013.51 1013.82 1014.11 1014.22 1014.23 1014.17 1014.32 1014.10
1001.67 1001.46 1000.24 999.74 999.75 999.73 999.50 999.45 999.23 998.95 998.66 998.30 998.48 999.13 999.54 1000.11 1000.50 1000.09 999.51 1000.05 1001.39 1003.32 1004.30 1005.03 1006.15 1007.19 1007.79 1008.10 1009.13 1009.97 1010.34 1010.95 1011.46 1011.83 1012.06 1012.32 1012.27 1012.23 1012.14 1012.24 1012.86 1013.67 1013.82 1013.79 1013.90 1013.92 1013.87 1013.61 1013.47
1001.53 1000.89 1000.86 1000.63 1000.30 1000.12 1000.06 999.80 999.32 999.33 999.02 998.73 998.54 998.53 998.80 999.27 999.61 999.65 999.65 999.45 1000.67 1002.65 1003.79 1004.50 1005.31 1006.32 1006.80 1007.11 1008.17 1008.63 1009.28 1009.97 1010.56 1011.06 1011.48 1011.91 1012.18 1012.01 1011.86 1011.71 1012.17 1012.69 1012.65 1012.93 1012.81 1012.93 1012.65 1012.70 1012.77
1001.39 1000.85 1000.63 1000.51 1000.40 1000.43 1000.15 999.79 999.60 999.10 998.62 998.29 998.36 998.41 998.37 998.45 998.85 999.29 999.46 999.65 1000.75 1002.21 1003.36 1003.99 1004.66 1005.59 1006.35 1006.78 1007.38 1007.55 1008.33 1008.93 1009.31 1009.88 1010.55 1010.96 1011.45 1011.67 1011.60 1011.46 1011.51 1011.41 1011.71 1011.94 1011.82 1011.60 1011.91 1012.56 1013.27
1001.18 1000.96 1000.73 1000.33 1000.05 999.91 999.75 999.47 999.17 998.69 998.45 998.33 998.12 998.21 998.23 997.98 998.34 999.00 999.62 1000.21 1000.87 1001.85 1002.87 1003.65 1004.34 1005.30 1006.01 1006.55 1007.08 1007.41 1007.74 1008.00 1008.43 1008.82 1009.33 1010.19 1010.79 1011.38 1011.58 1011.49 1011.32 1011.21 1010.90 1010.65 1011.09 1011.33 1011.70 1013.06 1013.75
1001.29 1001.00 1000.01 999.62 999.66 999.59 999.63 999.24 998.67 998.44 998.62 998.36 998.10 997.96 998.16 998.33 998.31 999.90 999.39 1000.27 1000.97 1001.79 1002.64 1003.50 1004.10 1004.99 1005.60 1006.52 1007.08 1007.40 1007.56 1007.59 1007.87 1008.16 1008.49 1009.06 1009.63 1010.17 1010.67 1010.59 1010.12 1010.10 1009.82 1009.91 1010.82 1011.44 1011.79 1012.17 1013.06
1001.10 1000.21 999.32 999.34 999.57 999.47 999.53 998.31 998.30 998.51 998.64 998.54 998.30 998.20 998.08 998.49 998.82 998.94 999.44 1000.30 1000.92 1001.57 1002.46 1003.27 1003.71 1004.55 1005.55 1006.28 1006.83 1007.31 1007.48 1007.47 1007.65 1007.65 1007.68 1008.10 1008.47 1008.34 1008.52 1009.29 1010.21 1009.98 1009.73 1010.02 1010.49 1011.40 1011.14 1010.95 1010.97
1000.15 998.96 998.72 998.93 999.34 999.75 999.32 998.57 998.34 998.61 998.79 998.67 998.58 998.59 998.50 998.57 998.89 999.16 999.66 1000.55 1001.16 1001.55 1002.34 1003.02 1003.62 1004.17 1005.19 1005.95 1006.57 1007.16 1007.18 1007.27 1007.24 1007.00 1006.82 1006.70 1006.85 1007.96 1008.52 1008.56 1008.87 1009.38 1010.13 1010.52 1010.54 1010.03 1011.20 1011.80 1012.04
999.97 999.23 999.25 999.37 999.49 999.79 999.75 999.09 999.01 999.28 999.07 999.18 999.43 999.62 999.64 999.72 1000.20 1001.17 1003.57 1001.57 1001.31 1001.32 1001.92 1002.72 1003.27 1003.79 1004.47 1005.22 1006.00 1006.58 1006.83 1006.73 1006.76 1007.00 1007.56 1007.78 1007.10 1006.32 1006.55 1007.74 1008.19 1008.75 1009.84 1010.06 1010.36 1010.78 1011.40 1011.51 1011.36
1001.09 1000.45 999.99 999.57 999.84 1000.37 1000.47 1000.33 1000.30 1000.38 1000.11 1000.57 1000.58 1000.85 1000.43 1000.84 1001.33 1001.97 1002.67 1002.46 1002.02 1001.68 1002.05 1002.41 1003.09 1003.82 1004.48 1005.06 1005.58 1005.99 1006.26 1006.52 1007.11 1008.02 1008.12 1008.42 1008.60 1007.25 1007.59 1008.60 1008.40 1008.33 1009.09 1009.45 1009.82 1010.24 1011.04 1011.28 1011.58
1001.13 1000.55 1000.15 999.94 1000.04 1000.70 1000.86 1003.06 1003.60 1003.80 1002.36 1001.69 1001.62 1001.70 1001.77 1001.90 998.82 1002.67 1003.55 1003.29 1002.81 1002.56 1002.56 1003.13 1003.42 1003.91 1004.31 1004.66 1005.08 1005.50 1005.89 1006.09 1006.63 1008.38 1009.38 1009.72 1008.36 1008.73 1008.82 1008.62 1008.78 1008.76 1009.17 1009.39 1009.51 1009.73 1010.64 1011.10 1011.46
1000.81 1000.95 1001.05 1000.86 1000.53 1000.60 1001.37 1005.59 1006.28 1005.02 1002.65 1002.72 1002.56 1002.45 1002.85 1003.20 1003.06 1003.51 1003.77 1003.97 1003.93 1003.82 1003.71 1003.65 1003.93 1004.06 1004.53 1005.02 1005.24 1005.55 1005.70 1005.87 1006.31 1007.77 1009.37 1009.40 1008.44 1008.66 1009.24 1008.57 1008.56 1008.29 1008.40 1008.61 1009.21 1009.28 1009.99 1010.63 1011.03
1000.77 1001.32 1001.26 1000.96 1000.64 1000.06 1001.03 1006.23 1007.83 1005.92 1003.50 1003.48 1003.56 1003.23 1003.33 1003.86 1004.31 1004.20 1004.12 1004.13 1004.36 1004.90 1004.97 1004.81 1004.82 1004.75 1004.74 1004.94 1005.21 1005.57 1005.78 1005.86 1005.69 1006.83 1006.35 1007.92 1008.63 1008.15 1007.60 1006.91 1007.38 1007.60 1007.79 1008.16 1008.51 1008.77 1009.33 1009.82 1009.95
1001.75 1001.80 1001.50 1001.00 1000.87 1000.68 1001.36 1004.60 1008.06 1006.46 1004.20 1004.16 1004.24 1004.21 1004.09 1004.34 1005.14 1005.30 1004.99 1004.95 1004.81 1005.02 1005.35 1005.63 1005.74 1005.81 1005.85 1005.60 1005.52 1005.90 1006.34 1006.28 1006.59 1005.66 1005.83 1006.21 1005.74 1006.03 1006.39 1006.82 1007.00 1006.95 1007.60 1007.93 1007.93 1007.90 1008.80 1009.33 1009.25
1001.88 1001.80 1001.29 1001.11 1001.02 1001.29 1002.53 1003.97 1008.45 1007.29 1004.51 1004.41 1004.60 1004.75 1004.86 1005.00 1005.78 1006.57 1006.35 1006.03 1006.45 1006.77 1006.53 1006.37 1006.47 1006.53 1006.22 1006.35 1006.36 1006.78 1006.71 1006.64 1006.27 1006.03 1006.00 1006.19 1006.63 1006.89 1007.13 1007.17 1007.17 1007.23 1007.65 1007.64 1007.77 1008.35 1008.41 1008.40 1009.66
1001.33 1001.43 1000.92 1000.80 1002.38 1002.82 1003.32 1003.33 1004.74 1004.91 1004.78 1005.01 1005.10 1005.16 1005.46 1005.79 1006.38 1007.22 1007.57 1007.65 1007.99 1008.39 1008.10 1008.41 1008.22 1007.77 1007.93 1008.07 1007.73 1007.54 1007.32 1007.40 1006.93 1007.02 1007.10 1007.49 1007.46 1007.81 1007.93 1007.69 1007.68 1007.75 1007.80 1007.96 1008.36 1008.46 1008.81 1009.48 1009.50
1001.88 1002.10 1002.35 1002.52 1002.42 1002.53 1002.89 1004.77 1004.85 1005.11 1005.34 1005.46 1005.58 1005.96 1006.39 1006.65 1007.17 1007.81 1008.51 1008.69 1009.17 1009.52 1009.66 1009.57 1009.44 1009.32 1008.91 1008.75 1008.33 1008.02 1007.92 1008.05 1007.89 1008.00 1008.18 1008.21 1008.36 1008.52 1008.64 1008.35 1008.32 1008.34 1008.37 1008.53 1008.68 1008.67 1009.34 1009.35 1009.75
1002.58 1002.63 1003.34 1003.46 1002.97 1003.37 1004.91 1006.54 1006.24 1005.48 1005.87 1006.08 1006.15 1006.71 1007.32 1007.61 1008.17 1008.53 1009.03 1009.53 1009.72 1009.89 1010.15 1010.25 1010.19 1010.15 1009.92 1009.59 1009.00 1008.51 1008.23 1008.17 1008.36 1008.50 1008.75 1008.89 1008.89 1008.78 1008.86 1008.87 1008.66 1008.58 1008.70 1008.95 1009.34 1009.39 1009.44 1009.62 1009.60
1003.17 1003.38 1003.53 1003.79 1004.17 1004.53 1004.25 1006.36 1006.40 1006.51 1007.05 1007.02 1007.06 1007.62 1008.06 1008.18 1008.54 1009.07 1009.42 1009.99 1010.30 1010.36 1010.50 1010.48 1010.34 1010.39 1010.24 1009.87 1009.44 1008.90 1008.59 1008.54 1008.80 1009.07 1009.22 1009.32 1009.15 1009.07 1008.97 1008.88 1008.78 1008.80 1008.84 1009.06 1009.41 1009.36 1009.16 1009.09 1009.14
1003.58 1003.89 1004.61 1005.45 1005.93 1005.99 1005.97 1006.28 1006.83 1007.47 1008.08 1008.32 1008.24 1008.51 1008.71 1008.87 1009.16 1009.47 1009.84 1010.36 1010.69 1010.85 1010.74 1010.72 1010.58 1010.49 1010.31 1010.01 1009.70 1009.41 1008.90 1008.74 1008.92 1009.12 1009.26 1009.27 1009.36 1009.27 1009.12 1009.02 1008.99 1008.78 1009.00 1009.11 1008.99 1008.71 1008.64 1008.85 1008.94
1004.77 1004.98 1005.91 1006.88 1007.14 1007.44 1007.63 1007.22 1007.57 1008.15 1008.75 1009.21 1009.29 1009.40 1009.39 1009.64 1009.68 1009.96 1010.35 1010.81 1011.10 1011.21 1011.08 1010.99 1011.02 1010.64 1010.32 1010.05 1009.70 1009.56 1009.29 1008.90 1008.84 1008.73 1009.01 1009.11 1009.25 1009.18 1009.04 1009.00 1008.89 1008.89 1008.65 1008.64 1008.63 1008.50 1008.38 1008.41 1008.64
Wind_Speed
10 11 10 10 2 5 6 14 16 8 9 9 11 9 10 8 14 6 15 7 24 22 18 18 17 15 16 15 15 14 14 13 11 11 10 9 9 8 7 7 7 7 8 7 6 6 6 6 5
11 16 11 12 9 6 6 19 22 11 8 6 3 16 10 18 13 11 15 8 24 20 16 16 16 16 16 16 15 14 14 13 12 11 10 9 8 8 7 6 6 7 7 7 6 5 6 5 4
13 17 11 10 6 10 12 13 9 10 3 7 9 10 13 17 12 9 13 16 22 18 16 15 16 16 15 15 15 14 14 13 12 11 10 9 8 7 7 6 6 7 7 7 7 6 5 5 3
9 11 9 13 7 16 20 7 7 4 9 11 20 19 6 28 6 9 12 20 20 20 17 18 16 15 15 14 14 14 13 13 12 11 10 9 8 8 7 7 6 7 7 7 7 6 6 5 4
12 10 12 17 16 20 5 8 8 12 9 12 6 9 12 10 11 13 10 14 17 19 20 17 15 15 16 16 14 13 12 12 11 11 11 10 9 9 8 8 7 7 8 7 7 7 6 6 6
9 11 14 14 16 18 4 8 8 10 13 11 11 13 7 25 4 9 9 12 16 21 19 17 16 14 14 14 14 13 12 11 10 11 11 11 10 10 9 9 9 9 9 9 10 9 8 9 9
12 11 17 18 9 23 7 6 7 7 8 5 20 15 5 9 8 10 8 8 16 23 19 15 15 13 13 13 13 12 12 11 11 11 11 11 10 10 11 10 10 11 11 10 10 10 10 10 9
11 12 19 17 14 4 6 2 4 10 13 12 7 9 5 9 14 10 13 10 14 19 20 17 14 14 12 12 14 13 12 12 12 12 11 11 12 12 13 12 12 13 12 12 12 12 11 11 10
10 9 12 17 15 8 6 6 12 4 10 6 3 16 19 14 15 14 11 10 11 12 19 18 16 15 14 14 13 14 16 15 13 13 13 11 8 11 13 14 15 17 15 14 13 12 13 12 12
7 10 15 13 13 15 12 8 10 10 8 12 20 15 15 13 10 13 13 12 14 13 17 19 18 17 15 13 15 13 12 10 10 11 11 9 11 9 14 16 21 19 16 14 14 14 14 12 8
9 11 17 16 14 14 12 11 13 8 13 15 14 12 15 13 7 10 17 17 16 14 11 17 17 16 18 14 12 8 8 8 8 12 10 11 9 8 7 5 7 6 12 7 10 10 9 12 10
8 12 7 11 13 6 10 14 11 10 13 13 13 9 7 13 12 9 1 14 15 15 13 13 17 14 14 10 12 12 10 10 8 11 11 6 5 5 5 5 9 9 8 11 9 8 13 14 11
10 12 5 9 8 10 14 12 11 16 12 13 11 13 13 8 10 7 5 8 14 15 14 14 14 12 7 3 7 7 9 9 10 10 11 8 6 4 4 3 4 3 9 10 10 11 7 2 3
13 10 12 11 9 10 12 13 15 11 9 11 8 6 10 10 11 7 6 4 9 12 14 13 12 10 11 5 4 1 3 3 5 6 9 11 5 4 4 4 5 5 5 4 3 4 4 4 3
9 12 17 10 5 7 6 13 14 4 8 8 6 7 7 6 5 8 9 5 8 9 11 8 9 14 9 9 5 4 3 6 4 5 7 13 11 7 6 6 6 5 7 7 6 5 3 5 4
14 17 16 12 2 6 8 5 8 9 7 10 8 9 2 1 6 7 5 9 7 8 10 9 11 15 12 7 7 5 6 4 5 5 5 9 9 13 10 7 7 8 3 4 6 4 4 6 6
15 12 5 8 9 4 9 10 9 8 7 7 4 9 10 6 6 4 6 4 7 8 10 11 8 10 15 10 7 8 8 7 5 5 6 7 8 3 3 8 8 6 4 4 7 5 1 3 2
15 11 4 4 8 7 14 9 6 8 11 18 19 18 16 14 20 18 9 13 5 8 9 11 8 7 10 11 9 6 8 7 7 7 6 5 4 6 9 5 7 6 6 4 3 4 3 4 5
10 7 8 5 3 3 11 6 11 13 18 16 14 13 9 15 18 17 16 13 11 8 4 8 10 8 5 5 9 8 7 6 6 5 2 1 7 8 2 7 4 7 8 8 8 5 5 6 2
7 9 11 9 2 5 12 21 26 25 11 16 17 16 16 19 10 14 13 12 11 6 4 4 3 7 7 6 2 3 4 6 6 6 6 8 11 8 3 7 5 5 5 9 9 9 3 3 3
10 4 8 11 12 11 3 19 29 29 14 17 16 17 17 17 18 14 12 12 12 14 13 6 2 4 5 5 3 2 2 3 4 4 3 8 24 14 11 8 8 8 8 7 8 10 12 7 4
7 8 8 12 12 13 12 6 12 15 15 16 15 16 17 17 17 16 15 12 12 12 12 13 14 11 3 5 4 7 3 5 2 7 10 17 22 16 14 13 11 8 5 8 10 9 9 5 4
13 5 11 10 14 13 12 11 9 24 11 14 15 15 16 18 18 19 18 16 18 13 12 9 9 11 11 11 5 4 5 2 5 7 7 11 11 9 6 5 6 5 4 5 10 11 10 7 5
8 11 16 15 11 5 4 9 8 9 9 12 14 14 14 17 20 19 19 18 19 17 15 11 10 9 6 6 5 6 7 7 5 9 7 9 6 2 2 3 5 4 4 8 9 10 5 3 4
6 9 10 6 4 4 16 8 9 9 11 13 12 14 14 16 17 18 18 20 19 19 19 17 20 16 17 13 10 11 13 13 10 7 7 10 7 8 8 7 5 5 2 6 5 7 6 4 4
9 7 7 12 10 9 15 12 12 14 12 13 14 15 15 16 16 17 19 17 17 17 16 15 15 17 17 16 14 10 8 5 8 9 7 6 7 6 8 6 5 6 6 6 4 5 3 5 3
10 9 11 10 14 10 6 6 5 12 11 11 12 14 14 15 14 16 16 14 16 15 15 14 14 13 13 14 12 8 8 8 6 8 8 6 6 4 4 3 3 5 6 6 4 2 3 3 4
2 7 8 4 7 13 14 10 5 9 9 11 13 13 12 13 13 13 14 14 13 12 12 13 12 10 8 9 10 8 6 5 6 5 5 4 3 2 1 4 5 5 4 4 2 2 4 4 2
11 11 9 7 8 10 9 7 8 7 9 9 11 10 10 12 13 12 13 13 13 13 15 11 11 12 12 11 10 11 6 6 4 3 2 2 1 2 4 4 3 4 4 3 5 3 2 5 5
9 5 9 4 11 11 10 10 11 9 10 7 9 11 11 10 10 12 14 14 12 11 12 11 11 13 10 11 10 9 10 4 2 2 3 3 3 4 3 4 4 6 7 6 4 4 3 3 2
Wind_Direction
261 238 237 257 218 99 14 294 314 76 120 311 29 55 27 49 39 64 146 129 121 130 132 132 132 136 141 143 141 140 140 140 144 143 143 143 139 135 128 126 124 121 121 123 122 123 116 106 92
290 294 262 263 260 234 170 233 268 49 47 320 19 76 44 65 48 114 125 158 123 129 139 135 137 138 144 147 142 141 143 144 144 149 149 146 146 144 143 140 137 137 139 139 134 132 129 123 117
272 270 274 250 263 242 253 223 6 103 114 276 85 82 41 317 53 88 110 132 120 127 142 132 142 141 142 142 143 143 146 147 152 156 155 152 156 157 154 155 157 154 161 159 151 154 144 143 145
275 283 227 261 199 218 238 38 316 25 69 53 42 82 105 249 69 91 144 129 132 131 140 141 144 144 144 146 148 148 152 154 157 162 162 164 169 168 164 171 173 177 180 172 173 171 167 176 182
246 265 266 257 262 245 26 48 328 341 67 81 90 54 358 20 90 110 132 146 138 137 125 146 148 148 149 152 154 155 156 157 163 168 171 176 176 178 178 182 186 193 191 186 190 191 189 195 208
268 248 276 283 44 300 77 56 309 359 114 71 92 81 161 261 75 121 146 146 139 127 135 143 148 152 152 155 159 161 161 163 170 175 178 181 183 185 191 193 196 202 202 198 201 203 207 213 220
259 266 256 278 125 279 90 47 18 352 348 148 137 139 212 263 160 136 149 110 132 129 135 148 159 161 157 159 163 164 164 170 177 183 183 185 191 194 201 201 207 208 207 207 214 213 218 223 228
253 283 288 286 284 38 69 282 337 25 331 313 178 121 204 213 136 153 114 154 142 142 136 152 163 171 173 171 174 173 174 179 183 186 191 192 196 204 208 209 211 212 212 211 216 222 226 230 234
283 269 268 264 272 260 90 34 350 347 308 321 272 101 120 142 149 147 139 150 142 150 142 152 171 175 184 177 178 182 187 191 191 196 198 196 208 205 215 213 216 208 210 215 221 228 233 236 241
224 245 254 284 354 344 3 13 331 321 324 308 77 94 119 148 161 154 165 160 155 164 163 155 173 173 190 190 165 186 188 194 197 199 195 210 214 225 203 210 210 201 204 212 221 229 234 235 240
245 249 299 329 3 333 315 313 279 342 305 335 355 125 154 152 165 231 191 153 152 163 176 167 169 171 184 207 155 176 185 191 197 210 204 202 225 226 228 218 180 189 207 213 215 228 234 232 228
270 266 294 304 308 276 268 268 305 302 291 310 291 295 190 163 170 232 341 122 137 157 179 184 164 173 194 184 168 180 186 184 192 199 202 218 220 260 234 220 180 197 206 209 220 212 226 226 236
242 276 320 286 260 262 268 283 290 271 287 283 331 300 290 253 168 200 311 130 144 158 173 186 172 170 199 199 188 176 182 178 190 181 189 194 214 234 265 267 280 255 211 194 216 221 230 156 69
320 314 296 274 284 265 251 266 258 276 346 316 313 340 320 305 176 196 149 180 147 157 162 188 178 156 175 202 212 268 176 193 179 175 176 191 185 204 269 251 242 239 272 271 101 84 110 61 348
286 279 270 225 223 291 331 257 239 249 331 332 290 355 13 303 322 92 168 171 152 153 155 168 174 158 178 167 199 222 243 207 229 180 189 172 183 194 228 249 232 219 220 233 116 100 94 95 77
250 252 255 133 266 145 264 329 107 46 344 333 1 297 118 162 268 172 153 158 166 172 152 168 187 163 167 168 182 208 232 259 187 213 188 180 178 193 202 201 243 264 150 122 122 101 152 165 142
232 265 110 136 120 308 274 316 56 55 340 277 279 343 1 6 191 219 100 180 180 166 158 169 179 201 164 179 188 196 221 210 227 222 206 191 162 60 329 223 221 209 134 117 167 186 96 53 143
346 360 109 281 105 28 301 308 31 35 30 42 33 19 7 0 37 44 132 355 318 177 168 173 179 196 163 172 184 208 211 227 216 213 102 139 133 174 237 282 205 147 168 166 159 142 148 185 215
315 322 283 265 21 326 289 314 54 37 65 51 47 30 18 55 46 34 22 357 344 336 166 168 173 170 195 174 187 195 229 229 227 87 130 141 341 258 172 269 188 156 182 186 182 153 195 238 250
282 274 14 314 128 249 280 31 23 77 312 62 53 63 34 38 76 69 42 12 1 352 313 105 171 149 185 204 253 190 200 221 91 49 353 328 311 297 255 254 253 187 188 201 186 184 190 242 194
241 11 354 305 299 257 212 44 356 308 77 69 49 71 66 43 33 47 56 56 25 21 13 3 9 215 181 209 207 239 144 179 147 140 79 335 272 272 232 238 259 250 215 220 212 208 203 216 201
22 16 309 303 291 284 192 124 195 283 83 74 54 39 61 63 39 31 41 46 71 50 24 18 13 360 213 209 226 257 214 245 306 163 178 228 248 232 226 224 232 222 234 223 209 205 205 172 189
309 356 298 285 278 294 146 110 315 329 84 73 63 44 40 56 51 25 28 35 30 58 59 48 28 13 7 2 272 298 277 278 266 273 254 196 220 224 238 274 301 300 179 210 205 202 193 197 191
301 283 273 263 253 237 130 140 215 226 66 76 71 54 38 47 54 36 13 33 40 18 25 45 54 33 18 6 356 318 310 302 344 356 4 9 360 45 47 20 2 343 197 211 223 222 194 5 265
236 317 316 250 333 86 243 306 122 121 81 79 65 55 49 46 51 43 34 23 29 20 12 22 12 31 41 38 44 37 26 10 9 12 2 352 339 22 6 359 0 353 20 49 79 83 97 122 137
312 317 12 332 335 336 218 19 103 82 65 72 56 53 38 46 45 52 32 35 37 30 22 21 21 11 14 17 19 21 21 10 2 5 358 338 16 12 360 17 37 69 84 101 113 117 156 153 172
357 15 336 309 290 267 98 27 263 96 58 40 58 51 33 48 44 41 52 39 30 38 34 29 19 12 7 4 355 8 8 14 3 24 13 18 16 16 16 19 52 80 83 83 94 141 168 193 218
347 311 341 328 330 336 330 120 195 46 29 23 38 35 32 32 45 41 46 40 31 34 40 24 29 25 11 347 350 348 345 13 50 29 30 43 18 11 131 55 92 101 106 117 166 238 250 231 237
346 340 358 349 313 317 338 27 93 71 64 11 17 21 43 26 24 39 40 40 33 20 20 32 23 18 5 2 355 346 351 45 60 113 83 83 51 102 112 118 145 138 137 203 233 270 177 207 228
323 11 37 357 331 337 316 307 71 66 72 46 19 21 25 6 32 26 28 24 22 19 12 19 12 3 3 351 344 350 336 6 99 19 134 165 155 174 133 173 176 189 201 190 207 218 255 269 335